Location: Ceske Budejovice
(48.9830°N, 14.4670°E)
Time: 17:24:32
(UTC+01:00)

ISS - Pass Details

Date: 26 November 2019
Orbit: 411 x 421 km, 51.6° (Epoch: 14 December)

Event Time Altitude Azimuth Distance (km) Brightness Sun altitude
Rises 16:48:10 0° 213° (SSW) 2,342 1.1 -6.2°
Reaches altitude 10° 16:50:28 10° 199° (SSW) 1,485 -0.3 -6.6°
Maximum altitude 16:53:15 25° 143° (SE) 896 -2.2 -7.0°
Drops below altitude 10° 16:56:03 10° 86° (E) 1,499 -1.5 -7.4°
Enters shadow 16:56:18 - 84° (E) 1,586 -1.4 -7.4°
